Wind_Speed
16 16 17 17 17 17 17 17 18 18 18 18 18 18 19 19 20 21 21 22 22 23 23 23 24 24 24 25 25 26 27 27 28 28 29 29 29 30
19 19 19 19 20 20 20 21 21 21 22 22 22 22 23 23 24 24 25 26 26 27 27 27 28 28 29 29 29 30 30 31 31 32 32 32 33 33
21 21 21 22 22 23 23 23 23 24 25 25 25 25 26 26 27 27 28 29 30 30 31 31 32 32 33 33 33 34 34 35 35 35 36 36 36 36
22 22 22 23 23 24 24 25 26 26 26 27 27 27 28 29 30 31 31 32 32 32 33 34 34 35 35 36 37 37 38 38 39 39 39 40 40 40
24 24 24 24 25 26 26 27 27 28 29 29 29 30 31 32 33 33 33 34 35 35 36 37 37 38 38 39 40 41 42 42 43 43 43 43 43 43
25 26 26 26 27 27 28 28 29 30 30 31 32 32 33 34 35 35 35 36 36 37 38 39 40 41 41 42 43 44 44 45 46 46 47 47 47 48
27 27 27 28 28 28 29 29 30 31 32 33 34 35 36 36 37 37 38 38 38 39 40 41 42 43 44 45 45 46 47 48 49 49 50 50 51 51
29 29 28 29 30 30 31 32 32 32 33 35 35 36 37 38 39 39 40 42 43 43 44 45 46 47 48 49 49 51 52 53 54 54 55 55 55 55
29 29 29 30 31 32 33 34 34 34 34 35 37 38 39 39 41 42 44 45 46 47 47 48 49 50 52 53 54 55 56 57 57 58 58 58 59 59
28 29 31 32 32 33 34 35 35 36 36 37 38 39 40 42 43 45 46 48 49 49 50 51 53 54 55 56 57 58 59 59 60 60 60 61 61 61
29 30 31 32 33 34 35 36 37 38 38 38 39 41 43 43 44 46 47 48 50 51 52 53 55 56 57 58 60 60 61 61 62 63 63 64 64 64
30 31 32 33 34 34 35 36 37 38 39 40 42 43 44 45 46 48 49 51 52 54 55 56 57 58 58 59 61 63 63 63 64 64 65 65 66 65
31 32 33 33 34 35 36 37 38 40 42 43 44 45 46 48 49 51 52 54 55 56 57 59 60 61 62 62 62 63 64 64 64 64 64 64 64 64
31 33 34 34 36 37 38 39 40 42 44 45 46 48 49 50 52 53 54 56 57 58 59 60 60 61 61 61 61 62 62 62 62 61 61 60 60 60
33 35 36 37 38 39 40 41 42 44 45 46 47 48 50 51 53 54 56 57 58 58 58 58 58 59 59 59 59 59 58 58 58 56 55 55 55 54
35 36 37 38 39 40 42 42 43 44 45 46 48 49 51 52 53 54 55 55 55 55 55 55 55 55 55 55 54 53 53 53 51 50 49 49 49 49
35 36 38 39 40 41 42 43 44 45 46 46 47 49 50 51 51 51 51 52 52 52 53 52 52 51 51 50 49 48 47 46 45 44 43 43 43 44
36 37 38 39 40 41 42 43 44 45 45 46 47 48 48 49 49 49 49 49 49 49 49 48 47 47 46 46 44 43 42 40 39 39 39 39 39 39
36 37 37 38 39 40 41 42 43 43 44 45 45 46 46 46 46 46 46 46 46 45 45 44 43 42 42 41 40 40 38 37 36 36 36 35 34 34
35 36 36 37 38 39 40 41 42 42 43 43 44 44 44 44 44 44 43 43 43 42 42 41 40 39 38 37 36 36 35 34 34 33 32 32 31 31
34 35 36 37 38 39 39 40 40 41 41 41 41 41 42 42 41 41 40 39 39 38 37 37 36 35 35 34 33 32 32 32 31 30 29 28 28 27
34 34 35 36 36 37 37 38 38 38 39 39 39 39 38 38 37 37 36 36 35 35 34 34 33 33 32 31 30 29 29 29 28 28 27 26 26 25
33 34 34 34 34 35 35 35 36 36 36 36 36 35 35 35 34 34 33 33 32 32 31 31 31 30 29 28 28 27 27 26 26 26 25 25 25 25
Wind_Direction
249 252 255 258 262 267 270 273 276 277 279 279 279 278 277 277 276 275 276 276 276 276 276 277 277 277 277 277 276 276 276 276 276 276 276 276 277 276
255 258 259 262 265 268 270 272 275 276 277 278 277 277 277 277 277 277 276 276 276 276 276 277 277 277 277 277 276 276 275 276 276 276 276 276 276 275
258 260 262 266 269 269 270 271 273 275 278 279 279 277 278 278 280 279 279 279 279 278 278 278 279 278 277 277 276 276 276 276 276 276 276 276 276 276
261 262 264 266 268 270 272 274 274 275 278 280 279 278 278 279 281 282 282 282 282 282 281 280 280 280 279 278 278 277 277 276 276 276 276 276 276 276
263 265 266 267 269 271 273 275 275 275 277 278 278 279 278 279 280 281 282 282 282 282 281 281 280 280 280 280 279 279 278 277 277 277 276 276 276 276
265 267 268 269 270 271 273 274 275 275 276 277 277 277 278 279 280 281 281 281 282 283 283 282 281 282 281 281 280 280 280 279 278 278 277 277 276 275
268 268 268 268 270 272 274 275 276 275 276 276 277 278 279 279 280 281 281 282 282 284 284 283 283 282 282 282 281 281 280 280 280 279 279 278 278 277
269 271 269 269 271 273 275 276 277 277 277 278 278 279 279 279 280 281 281 282 282 283 284 283 284 284 283 283 282 281 281 281 280 279 279 278 278 277
272 273 273 273 275 274 275 276 276 278 278 279 280 280 280 281 282 283 282 283 284 284 284 284 284 284 284 284 283 283 282 282 281 280 279 278 277 277
273 274 275 275 275 276 276 277 277 278 279 281 282 283 284 284 284 284 284 284 285 285 285 285 285 286 285 285 284 284 283 283 282 281 280 279 278 277
274 275 276 277 277 278 279 279 281 282 282 283 284 285 286 286 286 287 287 286 286 287 287 287 287 287 287 286 286 285 284 283 282 282 281 280 279 278
276 278 278 279 279 279 280 281 283 284 285 286 286 286 287 288 288 289 289 288 288 288 288 288 288 287 287 287 286 286 285 284 283 283 282 281 280 279
279 281 281 281 282 282 283 284 285 286 287 288 288 288 289 289 289 290 290 289 289 289 289 288 288 288 288 287 286 286 286 285 285 284 283 282 281 280
281 281 282 283 285 287 287 288 288 289 289 290 290 291 291 291 292 292 292 291 291 291 291 291 290 290 289 288 288 287 287 286 285 284 283 282 282 281
283 285 286 287 288 289 289 290 291 292 292 292 292 293 294 295 295 295 295 295 295 294 294 293 293 292 291 290 289 288 288 287 287 286 285 284 283 282
286 288 288 288 288 289 291 293 294 294 295 295 295 296 297 298 298 298 298 298 297 297 296 295 294 293 293 292 291 290 290 290 289 287 286 285 285 284
288 289 290 290 291 293 294 295 296 297 297 298 298 299 300 301 300 301 301 300 299 299 299 298 297 296 294 293 293 292 292 291 290 288 287 286 286 284
290 291 292 293 294 295 296 298 299 300 300 301 301 302 303 302 302 302 302 301 301 301 301 300 299 298 297 296 295 294 294 293 291 290 289 288 287 286
292 293 295 296 298 299 300 301 302 302 303 303 304 304 304 304 303 303 303 303 303 303 302 301 300 299 298 297 297 295 295 293 293 293 291 290 289 289
295 296 298 299 300 301 302 303 304 304 305 305 305 305 305 305 305 305 305 304 304 304 304 303 302 301 299 299 297 296 295 294 293 293 292 291 290 290
296 298 300 301 302 303 304 305 306 306 307 307 308 308 308 307 307 307 307 307 307 307 307 306 306 305 303 302 301 299 298 297 296 295 294 293 292 292
298 300 301 302 304 305 307 307 308 309 309 310 310 310 311 311 311 311 310 310 311 310 310 309 309 309 307 306 304 302 300 299 299 298 296 294 294 294
300 301 303 305 306 307 309 310 310 311 312 312 313 313 314 314 315 314 314 314 314 313 313 313 313 313 311 310 308 306 304 303 301 301 299 297 296 295
Height
5878 5879 5879 5879 5880 5880 5879 5879 5879 5878 5877 5877 5876 5875 5874 5873 5872 5872 5871 5870 5869 5868 5868 5867 5866 5865 5864 5864 5863 5862 5861 5861 5860 5859 5859 5858 5857 5857
5874 5875 5875 5875 5875 5875 5875 5874 5874 5873 5872 5871 5871 5870 5869 5868 5867 5866 5865 5864 5863 5862 5861 5861 5860 5859 5858 5857 5856 5855 5854 5853 5853 5852 5851 5850 5849 5849
5869 5870 5870 5870 5870 5869 5869 5869 5868 5867 5867 5865 5864 5864 5862 5861 5860 5859 5858 5857 5856 5855 5854 5853 5852 5851 5850 5849 5848 5847 5846 5845 5844 5843 5842 5841 5840 5840
5864 5865 5865 5864 5864 5863 5863 5863 5862 5861 5860 5859 5858 5857 5855 5854 5853 5852 5850 5849 5847 5847 5845 5844 5843 5842 5841 5840 5839 5838 5836 5835 5834 5833 5832 5831 5830 5829
5859 5858 5858 5858 5857 5857 5857 5856 5855 5854 5853 5852 5851 5849 5848 5846 5845 5844 5842 5840 5838 5837 5836 5834 5833 5832 5831 5829 5828 5827 5825 5824 5823 5822 5821 5820 5819 5818
5852 5852 5852 5851 5851 5850 5850 5849 5848 5847 5845 5844 5843 5841 5840 5838 5836 5835 5833 5831 5829 5827 5826 5824 5823 5821 5819 5818 5816 5815 5813 5812 5811 5809 5808 5807 5806 5805
5845 5845 5844 5844 5844 5843 5843 5841 5840 5839 5837 5836 5834 5833 5831 5829 5827 5825 5823 5821 5819 5817 5815 5813 5811 5809 5808 5806 5804 5802 5800 5798 5797 5795 5794 5793 5791 5790
5839 5838 5837 5837 5836 5836 5835 5833 5832 5830 5829 5827 5825 5823 5821 5820 5818 5816 5813 5811 5809 5807 5805 5802 5799 5797 5794 5792 5790 5788 5786 5783 5782 5780 5778 5777 5775 5774
5832 5831 5830 5829 5828 5827 5826 5824 5823 5821 5820 5818 5816 5814 5812 5810 5808 5805 5802 5799 5797 5794 5792 5789 5786 5783 5780 5777 5775 5772 5770 5767 5765 5763 5761 5759 5757 5756
5824 5823 5822 5821 5819 5818 5817 5815 5813 5812 5810 5808 5806 5803 5801 5798 5796 5793 5790 5787 5784 5781 5778 5775 5771 5768 5764 5761 5758 5755 5752 5749 5746 5744 5742 5740 5738 5736
5816 5815 5813 5812 5811 5809 5807 5806 5804 5802 5799 5797 5794 5792 5789 5786 5783 5780 5777 5774 5770 5766 5764 5760 5756 5752 5748 5744 5740 5737 5734 5730 5727 5724 5722 5720 5718 5716
5808 5807 5805 5803 5801 5799 5798 5796 5794 5791 5789 5786 5783 5781 5778 5774 5771 5767 5763 5759 5755 5751 5748 5743 5739 5735 5732 5727 5722 5718 5714 5711 5708 5704 5701 5698 5695 5693
5800 5798 5796 5794 5792 5790 5788 5786 5783 5781 5778 5775 5771 5768 5765 5761 5757 5753 5749 5744 5739 5735 5731 5726 5721 5717 5712 5709 5703 5698 5694 5690 5687 5683 5680 5677 5673 5671
5792 5790 5788 5786 5783 5781 5778 5776 5772 5769 5766 5762 5759 5755 5751 5746 5742 5737 5732 5727 5722 5718 5713 5708 5703 5698 5693 5689 5684 5679 5674 5670 5666 5662 5659 5655 5653 5650
5784 5781 5779 5776 5774 5771 5768 5765 5762 5758 5754 5749 5745 5741 5736 5731 5726 5721 5716 5711 5705 5700 5695 5690 5685 5679 5674 5670 5665 5660 5656 5651 5647 5643 5640 5636 5633 5630
5774 5772 5769 5767 5764 5760 5757 5753 5750 5746 5741 5737 5732 5727 5722 5717 5712 5706 5700 5694 5689 5683 5678 5673 5668 5662 5657 5651 5647 5642 5638 5634 5630 5626 5622 5619 5616 5613
5765 5762 5759 5757 5753 5749 5746 5742 5738 5733 5729 5724 5719 5714 5708 5702 5697 5691 5685 5679 5673 5668 5662 5657 5651 5646 5640 5636 5631 5626 5622 5618 5614 5610 5607 5604 5601 5597
5755 5752 5749 5745 5742 5738 5734 5730 5725 5721 5716 5711 5706 5700 5694 5688 5683 5677 5671 5666 5660 5654 5648 5642 5637 5631 5626 5621 5617 5612 5608 5604 5601 5597 5594 5591 5588 5584
5745 5741 5738 5734 5731 5727 5723 5718 5713 5709 5703 5698 5693 5687 5681 5676 5670 5664 5658 5653 5647 5641 5635 5629 5624 5619 5614 5609 5604 5599 5596 5592 5589 5586 5582 5579 5576 5573
5734 5731 5727 5724 5720 5716 5711 5707 5702 5697 5692 5686 5681 5675 5669 5663 5658 5652 5646 5640 5634 5628 5623 5617 5612 5607 5602 5598 5594 5589 5584 5581 5578 5575 5571 5568 5565 5563
5724 5720 5717 5713 5709 5705 5700 5695 5691 5686 5680 5675 5669 5664 5658 5652 5646 5640 5634 5629 5623 5617 5612 5607 5602 5596 5591 5587 5583 5579 5575 5571 5568 5565 5562 5559 5556 5554
5714 5711 5707 5703 5699 5694 5690 5685 5680 5675 5670 5664 5659 5653 5647 5641 5635 5629 5624 5618 5613 5608 5602 5597 5592 5588 5583 5578 5574 5570 5567 5563 5559 5555 5552 5550 5547 5545
5704 5701 5697 5693 5689 5685 5680 5675 5671 5666 5660 5655 5649 5644 5638 5632 5626 5621 5615 5610 5605 5599 5594 5589 5584 5579 5575 5570 5566 5562 5559 5555 5551 5548 5545 5542 5539 5537